Regional Weather Roundup
Issued by NWS Kansas City/Pleasant Hill, MO

Home | Current Version | Previous Version | Graphics & Text | Print | Product List | Glossary Off
Versions: 1 2 3 4 5 6 7 8 9 10 11 12 13 14 15 16 17 18 19 20 21 22 23 24 25 26 27 28

000
ASUS43 KEAX 230810
RWREAX

WEATHER ROUNDUP FOR EASTERN KANSAS AND NORTHWEST MISSOURI
NATIONAL WEATHER SERVICE KANSAS CITY/PLEASANT HILL MO
300 AM CDT SAT SEP 23 2017

KSZ040-057-103>105-MOZ028-029-037-043-230900-
...KANSAS CITY METROPOLITAN AREA...

CITY           SKY/WX    TMP DP  RH WIND       PRES   REMARKS
K.C. INTL      CLEAR     71  67  87 S8        29.96F
K.C. DOWNTOWN  CLEAR     78  69  73 CALM      29.95S
LEES SUMMIT    CLEAR     73  70  90 SE8       29.98S
OLATHE - IXD   CLEAR     70  66  87 SE7       29.97S
OLATHE - OJC   CLEAR     70  68  93 SE3       29.97S
LAWRENCE       CLEAR     70  68  93 E5        29.95S

$$

MOZ001>008-011>017-020>025-030>033-038>040-044>046-053-054-230900-
...NORTHERN AND CENTRAL MISSOURI...

CITY           SKY/WX    TMP DP  RH WIND       PRES   REMARKS
ST. JOSEPH     CLEAR     73  70  90 S7        29.95S
MOSBY          SUNNY     68  68 100 CALM      29.97S FOG
WARRENSBURG    CLEAR     72  66  83 S5        29.97F
WHITEMAN AFB   CLEAR     70  70 100 S5        29.97S
CLINTON        CLEAR     66  66 100 CALM      29.98S
SEDALIA        CLEAR     72  69  90 S8        30.00S
WARSAW         NOT AVBL
CHILLICOTHE      N/A     70  69  97 CALM      29.98F
KIRKSVILLE     CLEAR     69  63  81 S5        30.00S

$$

MOZ041-047>049-056>058-063>065-088>090-097-230900-
...EASTERN AND SOUTHERN MISSOURI...

CITY           SKY/WX    TMP DP  RH WIND       PRES   REMARKS
ST. LOUIS INTL CLEAR     75  65  70 CALM      30.02S
SPIRIT OF STL  CLEAR     67  66  97 CALM      30.00F
COLUMBIA       CLEAR     72  67  84 S6        30.00F
JEFFERSON CITY CLEAR     70  66  87 SE5       29.99S
ROLLA          CLEAR     72  64  76 S8        30.03S
OSAGE BEACH    CLEAR     70  66  87 SE5       30.01F
SPRINGFIELD    CLEAR     71  67  87 SE8       30.00F
BRANSON        CLEAR     72  64  78 CALM      30.02F
JOPLIN         CLEAR     72  68  87 S8        29.98S
WEST PLAINS    CLEAR     66  64  93 CALM      30.04F

$$

IAZ060-094-KSZ022-034>040-054-083-096-NEZ052-066-093-230900-
...KANSAS...SOUTHEAST NEBRASKA AND IOWA...

CITY           SKY/WX    TMP DP  RH WIND       PRES   REMARKS
TOPEKA         PTCLDY    72  69  90 SE6       29.94S
MANHATTAN      PTCLDY    76  68  76 S7        29.92R
EMPORIA        PTCLDY    70  65  84 S6        29.94S
CHANUTE        CLEAR     71  67  87 SE6       29.96S
WICHITA        PTCLDY    74  67  78 SE10      29.92S
OMAHA          PTCLDY    76  67  73 S9        29.89R
LINCOLN        CLEAR     75  67  76 S12       29.89R
FALLS CITY     CLEAR     72  67  84 SE8       29.92S
LAMONI         CLEAR     71  68  90 S5        29.97S
DES MOINES     CLEAR     74  67  78 S7        29.94F

$$





USA.gov is the U.S. government's official web portal to all federal, state and local government web resources and services.